Temp
21 21 20 19 19 19 19 19 20 21 19 17 18 19 20 17 13 13 13 12 11 10 9 7 7 4 2 1 1 1 0 2 4 7 10 12 13 12 11 11 12 12 13 14
21 20 19 18 18 18 19 20 21 20 18 17 18 18 19 19 14 14 11 11 10 10 9 7 6 5 2 0 -0 0 0 1 3 4 7 10 10 8 8 8 9 10 10 12
21 19 18 18 19 19 20 19 18 17 18 19 18 20 18 16 15 12 10 10 10 9 8 7 6 4 4 1 -0 -0 0 0 2 3 5 8 7 7 5 5 5 5 7 8
20 19 18 19 19 18 19 18 17 17 17 18 18 19 19 16 14 13 12 11 10 8 7 7 5 4 3 2 1 -0 0 0 2 3 4 2 1 1 1 2 3 3 4 5
19 18 18 19 18 17 19 18 17 16 16 17 17 17 20 16 16 15 14 12 10 8 7 6 5 4 3 2 2 1 0 1 2 2 2 3 1 2 2 1 1 2 2 3
19 17 17 18 18 17 17 18 20 17 16 17 18 17 20 19 17 17 16 13 10 9 8 7 6 5 4 3 3 2 1 1 1 1 -0 1 1 0 1 1 2 1 -0 1
20 19 18 17 18 17 19 18 18 18 18 19 16 16 19 17 15 15 16 13 10 9 8 7 6 5 4 3 3 3 2 1 0 0 0 -1 -1 2 0 -1 -1 -0 -0 1
18 18 18 17 17 16 17 17 17 16 18 18 18 17 19 14 12 13 14 13 10 8 7 6 5 4 4 3 2 2 2 1 1 -0 -1 -1 -0 -1 -1 -2 -1 -2 -2 -1
18 19 17 16 16 16 17 17 16 16 18 15 19 20 12 12 12 11 11 10 10 9 8 6 5 4 3 2 2 2 2 1 1 0 -0 -1 -1 -0 -2 -1 -1 -1 -2 -2
18 16 17 17 15 15 16 16 16 17 16 16 19 19 19 16 15 13 12 11 11 9 8 7 5 4 2 1 1 1 1 1 1 1 0 -1 -1 -2 -2 -1 -2 -2 -2 -2
17 16 18 17 17 17 16 17 16 16 16 16 17 19 19 18 17 16 14 13 12 10 8 7 6 4 3 2 1 0 0 0 0 0 0 -0 -1 -1 -2 -2 -2 -2 -2 -2
16 16 15 18 17 15 15 16 16 16 16 16 16 15 18 17 16 15 15 15 13 12 10 8 6 4 3 2 1 1 0 -0 -1 -1 -0 -1 -1 -1 -1 -2 -2 -3 -3 -3
15 15 15 18 15 14 15 16 16 16 15 14 15 17 18 16 15 15 14 15 14 12 10 8 6 4 3 2 1 -0 -1 -1 -1 -1 -1 -1 -2 -2 -2 -2 -3 -3 -3 -3
15 14 15 16 17 16 15 15 15 15 13 15 16 17 19 20 19 18 18 15 14 12 10 7 6 5 3 2 1 -0 -1 -2 -2 -2 -2 -2 -2 -3 -3 -3 -3 -4 -3 -3
14 13 14 14 14 14 14 14 14 14 14 13 15 16 17 18 17 16 14 13 13 12 9 7 6 5 3 1 -0 -1 -2 -2 -3 -3 -3 -3 -4 -4 -4 -4 -4 -4 -4 -4
12 12 12 11 14 14 13 14 14 14 14 14 15 15 17 15 14 13 13 11 10 10 9 7 5 4 2 1 -0 -1 -2 -3 -3 -3 -3 -4 -4 -4 -4 -4 -4 -4 -4 -4
11 11 10 12 13 12 12 15 15 15 15 15 14 17 16 15 13 12 9 8 9 9 8 6 4 3 1 -1 -2 -1 -2 -3 -3 -3 -4 -4 -4 -4 -4 -4 -4 -4 -4 -4
12 11 10 10 12 12 18 16 14 15 15 15 15 15 15 12 9 8 6 6 7 6 6 4 3 0 -1 -3 -3 -3 -4 -4 -4 -4 -4 -4 -5 -5 -4 -5 -4 -5 -5 -5
12 11 10 11 14 16 17 13 13 13 14 15 14 13 11 7 6 8 3 3 4 4 4 3 1 -1 -3 -4 -5 -5 -6 -5 -4 -4 -5 -5 -5 -5 -5 -5 -5 -5 -5 -5
9 11 10 11 11 14 17 11 11 11 14 11 10 10 9 5 7 8 2 2 1 0 -0 -1 -2 -4 -6 -7 -7 -7 -6 -5 -4 -5 -6 -6 -6 -6 -6 -6 -6 -6 -6 -6
9 9 9 10 11 14 13 10 10 12 12 8 9 8 6 3 2 -0 0 -0 -2 -2 -3 -4 -5 -6 -7 -7 -7 -6 -5 -4 -6 -6 -7 -7 -6 -7 -7 -7 -7 -7 -7 -7
11 9 10 10 10 11 11 9 11 9 6 6 6 4 2 -0 -2 -2 -2 -3 -4 -5 -5 -6 -6 -7 -7 -8 -7 -6 -5 -6 -7 -7 -7 -7 -7 -7 -7 -7 -7 -7 -7 -7
10 13 14 12 14 12 9 9 5 4 4 3 1 2 1 -0 -1 -2 -3 -4 -4 -5 -6 -7 -7 -7 -8 -7 -7 -7 -6 -7 -8 -8 -7 -7 -8 -8 -8 -8 -8 -8 -8 -8
11 11 9 9 11 11 5 3 1 0 0 -0 -0 -0 -0 -1 -2 -3 -4 -4 -5 -6 -7 -7 -8 -8 -7 -7 -8 -8 -8 -9 -9 -9 -8 -9 -9 -9 -9 -9 -9 -9 -9 -9
9 7 8 9 10 5 1 -0 -1 -1 -1 -1 -2 -2 -2 -2 -3 -4 -5 -6 -6 -7 -8 -8 -8 -7 -7 -8 -8 -9 -9 -9 -9 -9 -9 -9 -9 -9 -9 -9 -9 -9 -9 -9
8 8 9 9 0 1 0 -1 -1 -2 -3 -3 -3 -4 -4 -4 -5 -6 -6 -7 -8 -8 -9 -8 -8 -8 -8 -9 -9 -9 -10 -10 -10 -10 -10 -10 -10 -10 -9 -10 -10 -10 -9 -9
Height
816 816 826 827 825 826 825 821 814 803 811 821 810 802 797 807 822 825 826 829 833 837 837 837 837 835 829 823 815 806 799 792 787 782 780 780 782 782 782 782 782 783 782 782
817 828 829 828 828 827 820 815 808 808 814 818 805 799 793 795 815 820 831 831 833 836 838 839 839 836 829 825 816 809 804 797 791 786 784 784 783 784 785 786 784 783 782 780
822 829 829 829 825 825 815 819 820 823 814 802 805 784 795 803 812 824 832 834 834 835 838 838 838 836 832 826 819 814 809 802 795 791 786 784 785 786 787 787 785 785 783 780
826 829 831 827 825 829 822 823 825 824 822 812 810 802 789 804 814 820 823 828 832 834 836 838 838 836 833 831 826 820 813 808 801 798 795 794 796 797 797 795 792 790 788 784
830 830 831 826 831 831 824 821 824 826 823 817 811 814 787 800 803 806 813 822 828 833 835 837 838 837 835 832 829 825 819 813 809 807 804 802 800 802 802 801 795 793 793 789
832 834 834 831 830 831 826 817 807 819 820 819 807 812 790 787 796 795 804 818 828 833 835 836 838 837 836 834 831 828 823 818 816 814 810 808 806 805 803 803 800 798 799 794
823 829 833 835 828 827 821 817 815 815 814 805 813 817 790 794 802 805 802 814 823 829 832 834 834 836 835 836 833 829 827 824 821 818 816 815 813 809 809 808 806 805 803 800
840 838 833 835 836 838 831 831 830 834 816 810 802 808 787 805 810 810 806 813 821 826 828 831 835 834 834 834 835 832 829 828 827 824 821 820 818 816 815 814 814 813 813 806
843 831 833 837 837 838 829 828 836 835 817 831 799 787 810 806 807 810 809 813 817 820 823 828 832 835 836 835 835 833 832 830 829 829 827 825 822 820 819 819 818 818 817 812
844 848 833 835 840 840 837 835 833 828 827 821 789 785 784 787 791 800 804 807 810 816 821 825 829 832 834 836 835 836 833 833 832 831 831 830 827 825 824 822 821 819 816 814
850 852 833 831 833 834 836 831 833 831 828 822 806 784 773 779 783 789 794 798 802 808 816 822 826 830 833 835 837 837 836 834 833 833 833 832 831 829 827 826 824 821 820 820
851 850 847 828 826 836 836 832 828 830 823 821 820 806 777 780 785 788 788 790 796 801 809 816 822 827 831 833 836 838 838 836 835 835 834 833 833 832 830 828 826 824 821 819
851 848 847 820 836 839 835 830 832 828 831 828 819 789 777 785 789 788 790 787 789 798 806 813 820 825 828 831 834 836 838 838 837 837 835 834 833 833 832 830 828 825 823 821
853 850 843 836 824 828 830 824 825 830 831 814 800 784 774 769 772 774 775 782 788 793 803 812 819 824 828 831 832 835 837 838 839 838 837 836 834 832 831 830 828 826 824 822
851 850 844 837 834 831 827 821 823 822 814 818 790 793 776 775 776 778 785 787 785 792 803 812 818 823 828 832 834 835 837 839 839 839 839 838 836 834 832 830 828 826 824 824
855 848 848 846 830 827 825 810 812 812 808 806 794 789 780 783 786 786 787 791 793 793 801 809 817 822 827 832 834 837 838 839 839 840 839 838 837 835 833 831 829 827 825 823
855 855 855 837 830 835 822 795 796 796 795 794 795 778 778 782 787 791 797 797 796 797 800 807 814 820 827 832 836 837 838 839 839 839 839 838 837 835 833 832 830 828 826 825
845 853 855 844 833 829 786 786 794 791 789 786 785 784 785 791 798 803 806 804 798 799 804 811 817 823 828 832 835 837 837 838 838 838 838 838 836 835 833 832 830 828 825 824
838 844 848 838 815 792 780 792 793 797 788 781 783 789 795 807 803 797 811 811 808 806 809 815 822 826 832 835 836 837 838 838 837 837 837 835 834 833 832 831 829 826 824 822
847 840 846 833 827 799 776 798 802 802 784 797 799 798 797 807 800 794 813 815 815 817 820 823 826 830 833 833 835 837 838 838 837 836 835 834 833 832 830 828 826 824 822 820
842 846 837 829 820 793 787 799 802 795 791 803 802 802 808 813 815 821 820 820 822 823 826 828 831 831 832 834 835 837 837 836 836 835 834 833 831 830 828 826 824 822 819 817
822 834 828 823 818 801 798 806 798 799 804 807 810 812 815 817 819 822 824 826 828 828 830 831 832 833 835 835 836 836 836 836 835 834 832 831 829 827 825 823 821 819 817 814
822 806 796 803 786 789 802 803 812 817 815 814 814 814 815 815 817 822 827 829 829 830 832 833 834 835 836 837 837 836 835 834 833 831 830 828 826 824 822 820 817 815 813 811
809 808 812 811 792 793 811 816 822 824 821 820 819 816 816 817 819 824 828 831 833 833 835 836 836 837 837 837 836 835 834 832 831 829 827 826 824 822 820 818 816 814 812 810
814 818 812 800 793 811 820 824 825 825 824 824 823 821 821 821 823 827 831 835 836 837 837 838 838 837 837 837 835 834 833 831 829 827 825 823 821 819 817 815 813 812 810 808
814 810 803 794 828 825 826 828 829 828 829 829 827 827 829 827 828 832 835 837 838 838 838 838 838 837 837 835 834 832 831 829 827 825 823 822 820 818 815 813 810 808 806 803
Wind_Speed
3 3 7 8 6 6 8 11 13 8 5 6 13 16 13 10 6 7 3 2 4 6 8 11 13 15 18 21 24 27 28 28 22 16 13 9 2 7 7 6 7 12 14 12
4 7 5 4 4 7 10 13 9 4 1 8 14 20 18 8 8 6 3 2 3 6 7 10 13 15 20 21 24 30 30 28 25 16 14 8 9 18 12 11 11 9 7 10
4 4 2 4 6 10 12 7 11 11 16 14 11 9 5 5 6 5 4 1 1 5 8 10 14 16 17 26 27 25 30 31 32 26 20 16 16 17 22 23 19 19 14 9
3 2 3 5 4 8 10 6 9 13 11 4 4 7 4 8 7 8 8 5 2 1 4 7 11 14 16 17 25 25 29 32 37 35 33 32 24 20 21 21 23 24 24 22
4 4 4 5 5 5 6 14 12 9 8 8 6 4 4 3 4 10 10 7 5 3 2 4 7 10 12 14 16 21 26 32 33 36 36 34 31 28 27 25 27 28 26 28
3 1 2 4 7 5 13 13 11 4 4 3 4 3 6 2 2 1 10 9 6 4 2 3 4 6 10 12 12 16 20 25 27 29 29 31 31 29 32 30 31 31 28 29
6 1 1 3 10 5 11 13 3 3 2 4 3 5 6 4 2 3 8 10 9 7 4 2 2 4 7 11 12 13 16 18 19 21 25 25 23 25 25 26 28 26 29 29
5 2 3 5 3 6 7 6 4 5 6 10 7 4 1 3 1 1 3 8 9 8 6 5 3 2 3 5 8 10 13 15 15 16 17 18 19 18 19 18 18 20 17 22
5 2 2 1 2 3 3 3 2 5 7 4 5 7 5 3 5 6 9 11 12 11 9 8 7 4 3 4 5 7 9 11 13 13 14 16 17 19 16 15 14 14 15 14
4 7 2 1 2 1 3 4 3 3 5 7 7 10 7 8 8 11 13 14 13 12 11 10 10 8 5 3 4 3 6 8 10 11 12 12 14 14 15 15 14 15 16 17
4 2 2 4 3 4 3 3 4 3 4 4 6 6 3 4 5 8 11 12 14 14 13 11 12 10 7 4 3 3 4 7 8 8 9 10 11 12 13 12 13 14 13 14
3 5 6 13 2 1 4 6 7 3 3 7 8 9 3 2 3 4 7 8 11 13 13 12 14 12 10 7 4 2 3 6 7 7 8 9 9 10 11 12 13 13 14 14
1 3 6 2 3 2 3 4 8 9 8 14 9 7 3 2 5 8 10 10 8 11 13 12 14 13 11 9 6 5 3 5 5 6 7 7 8 8 8 8 10 12 13 13
3 5 8 10 13 13 19 19 11 11 9 14 18 24 22 20 15 14 14 7 8 10 13 12 11 12 11 9 7 5 4 4 4 5 6 8 9 9 9 9 9 9 10 11
4 6 11 18 18 19 22 24 19 20 22 17 23 21 23 20 20 14 8 8 7 9 11 12 10 11 10 8 6 5 4 3 4 5 5 6 7 8 9 10 12 12 12 10
3 4 3 8 16 15 19 22 17 19 20 22 25 26 21 8 8 8 10 9 8 7 10 11 11 11 10 8 6 4 3 1 2 3 5 6 7 8 9 10 11 11 12 13
4 3 2 6 4 6 15 16 11 8 10 10 13 15 9 13 13 10 9 8 7 7 8 10 10 11 9 6 5 4 2 1 2 3 4 6 8 8 9 9 9 10 10 11
6 5 2 5 6 5 5 5 5 9 13 15 14 16 13 7 6 10 7 8 5 2 4 8 11 10 10 8 6 4 3 2 3 3 5 7 8 9 9 10 10 11 10 11
12 8 4 4 9 16 12 2 1 2 8 12 6 9 9 10 7 3 5 6 5 3 6 9 9 11 10 7 5 2 2 3 4 5 6 8 9 10 11 11 12 12 12 13
4 11 4 4 6 8 5 3 2 1 8 8 9 10 11 3 6 4 5 6 9 10 10 12 13 12 9 6 3 2 3 5 5 5 7 8 9 10 11 12 13 13 13 14
4 4 12 11 7 10 4 7 4 3 3 11 11 10 6 3 2 3 5 8 10 11 12 11 8 9 7 4 3 2 5 5 6 7 9 9 10 11 12 13 13 14 14 15
8 6 5 5 5 9 5 4 5 5 7 9 9 6 6 3 4 4 5 7 9 10 9 8 8 7 4 3 2 4 5 6 8 9 10 11 12 12 13 13 14 14 14 15
5 10 6 7 5 2 6 6 8 8 9 6 5 5 4 4 5 7 7 6 7 8 8 7 6 4 2 2 3 6 7 9 10 11 12 12 13 13 13 14 15 16 14 14
3 6 4 4 4 6 7 7 8 5 4 6 6 5 1 2 6 7 6 6 7 7 6 5 4 3 3 3 5 7 8 9 10 12 12 12 13 13 12 12 12 13 14 15
3 3 4 13 14 5 8 8 6 6 6 5 7 6 4 6 6 7 6 7 6 6 6 5 4 4 5 6 7 8 9 10 11 11 12 12 11 12 13 12 12 14 15 16
4 3 4 9 3 3 3 6 5 4 5 5 6 8 12 11 8 10 8 7 6 5 4 3 5 6 6 8 9 9 9 9 10 11 11 11 13 13 13 14 17 15 17 19
Wind_Direction
28 27 25 9 7 338 318 312 310 319 39 286 267 278 282 179 194 232 241 316 11 358 12 9 359 360 1 3 4 5 3 5 0 0 2 6 332 37 19 347 304 298 282 263
211 55 26 343 317 312 300 308 334 338 347 292 292 295 287 201 206 234 233 274 3 3 5 7 2 3 13 6 8 15 14 18 21 25 22 10 88 62 58 45 33 19 354 296
21 51 349 324 326 334 329 323 334 311 315 280 304 279 116 136 185 196 208 228 8 19 357 5 4 6 7 12 12 17 25 30 42 40 55 77 76 66 43 34 40 33 40 46
24 39 341 335 340 340 318 350 317 307 319 332 17 311 148 160 213 215 206 205 175 61 22 11 6 7 9 6 24 35 41 42 50 55 56 56 49 45 37 37 52 50 50 52
46 347 342 325 339 323 299 327 308 308 290 306 153 266 93 141 229 219 211 190 178 149 73 33 19 8 10 10 11 24 40 52 57 59 61 62 57 55 50 42 49 46 45 45
11 15 296 332 309 270 300 299 281 270 282 257 105 347 288 48 359 346 187 178 176 168 127 69 33 28 19 14 23 27 28 39 46 51 57 58 59 53 48 41 42 38 33 38
314 180 103 324 311 195 332 337 323 299 288 313 145 286 289 71 15 321 195 186 183 175 180 141 87 37 37 13 21 34 33 37 42 47 46 48 48 54 51 43 41 36 32 31
335 308 356 13 355 319 332 340 1 315 330 313 223 253 48 92 99 269 183 180 187 190 184 182 173 129 79 52 16 39 43 41 35 42 48 46 46 46 41 42 35 32 22 35
335 292 131 26 327 323 15 332 2 282 269 272 266 263 149 170 207 204 197 199 207 201 191 189 182 172 140 94 51 43 44 49 45 38 39 46 49 48 47 35 37 29 27 33
12 294 98 47 258 169 299 347 264 200 303 311 274 299 260 215 222 212 218 218 217 208 200 190 189 181 164 146 105 64 70 60 51 47 41 39 40 45 42 40 32 31 25 22
322 266 296 258 202 332 239 232 230 284 248 286 300 281 17 264 248 231 232 227 221 210 204 199 189 179 171 156 132 102 70 72 60 51 48 43 38 36 37 36 31 29 27 20
50 305 286 286 30 194 252 264 267 269 232 237 273 275 209 270 263 254 257 243 227 215 204 195 188 179 174 164 144 92 60 56 50 45 45 43 38 36 30 23 23 23 20 18
94 209 298 180 150 162 236 232 262 285 289 256 263 270 99 155 220 239 252 266 239 215 200 194 188 187 180 167 153 121 72 57 39 33 39 40 37 36 32 26 19 15 14 12
185 238 234 266 294 314 290 274 245 248 267 259 246 269 284 297 312 315 320 284 251 213 201 198 196 193 183 171 154 133 98 55 33 33 30 23 19 16 14 14 17 19 15 7
234 257 247 261 277 283 280 279 272 255 251 258 274 282 287 304 316 330 339 329 289 219 208 203 202 192 182 169 151 111 89 56 26 21 17 9 3 4 2 1 359 357 358 359
194 270 300 276 274 274 282 271 267 262 264 260 264 275 288 346 342 327 337 335 305 236 207 199 195 191 179 170 139 122 118 77 32 10 4 356 353 353 353 351 350 346 343 342
204 236 278 276 334 324 281 277 237 225 230 247 263 268 338 323 333 329 325 318 302 274 212 188 179 176 164 147 166 168 138 72 15 354 349 346 344 343 340 335 333 332 331 328
221 204 207 279 295 230 313 275 296 282 269 275 262 281 307 338 343 319 327 316 312 25 152 162 155 145 149 148 145 116 70 23 344 336 341 340 338 334 329 324 324 322 321 319
229 199 245 253 252 283 289 89 41 276 289 295 323 4 356 324 329 231 23 13 20 75 136 137 147 136 135 123 98 81 343 324 324 330 330 332 329 324 323 321 320 319 316 315
207 225 209 208 253 272 20 145 128 146 279 44 7 322 297 33 293 337 58 73 76 87 112 119 123 124 123 108 87 24 329 313 308 320 318 315 315 315 315 315 315 313 310 307
171 198 224 236 256 274 12 137 180 275 298 317 306 322 335 271 355 63 89 96 108 116 121 122 115 109 111 105 64 332 307 305 317 316 315 313 313 311 312 311 310 307 306 304
208 200 205 219 235 272 107 126 253 357 337 344 343 331 305 152 148 153 121 120 119 117 110 107 102 98 92 55 352 309 304 320 318 317 314 314 312 312 309 307 307 305 306 305
249 215 261 215 253 37 174 344 34 3 304 322 314 330 301 185 152 145 137 134 121 102 92 85 92 91 55 353 328 312 319 322 319 317 315 314 313 312 311 311 311 312 315 313
242 269 252 341 227 297 55 74 38 7 354 2 357 347 335 140 130 129 131 116 100 90 83 74 56 18 337 331 323 317 319 319 317 315 316 315 313 314 316 314 310 309 310 312
256 143 246 267 279 75 78 45 14 19 25 28 34 36 60 109 108 104 96 88 82 78 57 33 359 331 329 326 321 322 319 321 320 317 317 316 318 319 316 312 309 305 300 296
196 276 260 290 29 290 26 14 0 36 41 43 69 70 58 78 87 91 83 71 66 51 16 344 336 331 327 322 322 324 323 323 321 319 322 322 319 315 313 313 309 305 301 300